• In Romania
  • List of Countries
  • For 7 days
  • Water Temperature
  • Satellite Maps
  • Weather Map
  • Weather Widgets
  • user-avatar
    Login

    Hourly Weather Passo Fundo

    Today, 23 September, Saturday

    Time Temperature Precipitation Wind Pressure Humidity
    00:00 +20°C° 0.6 mm 3 mps 708 mmHg 95%
    01:00 +19°C° 0 mm 3 mps 708 mmHg 95%
    02:00 +19°C° 0 mm 3 mps 708 mmHg 95%
    03:00 +18°C° 0 mm 2 mps 707 mmHg 96%
    04:00 +18°C° 0 mm 2 mps 708 mmHg 96%
    05:00 +18°C° 0 mm 2 mps 708 mmHg 96%
    06:00 +18°C° 0 mm 2 mps 708 mmHg 95%
    07:00 +19°C° 0 mm 2 mps 708 mmHg 91%
    08:00 +20°C° 0 mm 2 mps 709 mmHg 87%
    09:00 +21°C° 0 mm 2 mps 710 mmHg 83%
    10:00 +21°C° 0.6 mm 2 mps 710 mmHg 82%
    11:00 +21°C° 0.6 mm 2 mps 710 mmHg 81%
    12:00 +23°C° 0.6 mm 2 mps 710 mmHg 80%
    13:00 +21°C° 0.4 mm 2 mps 709 mmHg 82%
    14:00 +21°C° 0.4 mm 2 mps 709 mmHg 83%
    15:00 +22°C° 0.4 mm 1 mps 709 mmHg 85%
    16:00 +20°C° 0.1 mm 2 mps 709 mmHg 87%
    17:00 +20°C° 0.1 mm 2 mps 708 mmHg 89%
    18:00 +19°C° 0.1 mm 2 mps 708 mmHg 91%
    19:00 +18°C° 0 mm 3 mps 709 mmHg 92%
    20:00 +18°C° 0 mm 3 mps 709 mmHg 92%
    21:00 +17°C° 0 mm 4 mps 709 mmHg 93%
    22:00 +17°C° 0 mm 4 mps 709 mmHg 93%
    23:00 +15°C° 0 mm 4 mps 709 mmHg 93%

    Tomorrow, 24 September, Sunday

    Time Temperature Precipitation Wind Pressure Humidity
    00:00 +15°C° 0 mm 4 mps 709 mmHg 93%
    01:00 +15°C° 0 mm 4 mps 709 mmHg 94%
    02:00 +14°C° 0 mm 4 mps 708 mmHg 95%
    03:00 +14°C° 0 mm 4 mps 708 mmHg 96%
    04:00 +14°C° 0 mm 3 mps 708 mmHg 96%
    05:00 +14°C° 0 mm 3 mps 708 mmHg 96%
    06:00 +14°C° 0 mm 3 mps 708 mmHg 96%
    07:00 +17°C° 0 mm 4 mps 709 mmHg 92%
    08:00 +18°C° 0 mm 4 mps 709 mmHg 87%
    09:00 +20°C° 0 mm 4 mps 710 mmHg 83%
    10:00 +22°C° 0 mm 4 mps 710 mmHg 76%
    11:00 +25°C° 0 mm 3 mps 710 mmHg 70%
    12:00 +27°C° 0 mm 3 mps 710 mmHg 63%
    13:00 +28°C° 0 mm 3 mps 709 mmHg 60%
    14:00 +28°C° 0 mm 2 mps 708 mmHg 56%
    15:00 +29°C° 0 mm 2 mps 708 mmHg 53%
    16:00 +28°C° 0 mm 2 mps 708 mmHg 59%
    17:00 +26°C° 0 mm 2 mps 707 mmHg 66%
    18:00 +25°C° 0 mm 2 mps 707 mmHg 72%
    19:00 +22°C° 0 mm 3 mps 708 mmHg 76%
    20:00 +21°C° 0 mm 4 mps 708 mmHg 79%
    21:00 +19°C° 0 mm 4 mps 709 mmHg 82%
    22:00 +19°C° 0 mm 5 mps 709 mmHg 82%
    23:00 +17°C° 0 mm 5 mps 709 mmHg 81%

    Day after tomorrow, 25 September, Monday

    Time Temperature Precipitation Wind Pressure Humidity
    00:00 +17°C° 0 mm 6 mps 709 mmHg 80%
    01:00 +17°C° 0 mm 5 mps 709 mmHg 80%
    02:00 +17°C° 0 mm 5 mps 709 mmHg 80%
    03:00 +17°C° 0 mm 5 mps 708 mmHg 80%
    04:00 +16°C° 0 mm 5 mps 708 mmHg 80%
    05:00 +17°C° 0 mm 4 mps 708 mmHg 80%
    06:00 +17°C° 0 mm 4 mps 709 mmHg 80%
    07:00 +18°C° 0 mm 4 mps 709 mmHg 78%
    08:00 +20°C° 0 mm 4 mps 709 mmHg 76%
    09:00 +21°C° 0 mm 4 mps 710 mmHg 74%
    10:00 +23°C° 0 mm 4 mps 710 mmHg 68%
    11:00 +26°C° 0 mm 3 mps 710 mmHg 62%
    12:00 +28°C° 0 mm 2 mps 710 mmHg 56%
    13:00 +29°C° 0 mm 2 mps 709 mmHg 55%
    14:00 +29°C° 0 mm 2 mps 709 mmHg 55%
    15:00 +29°C° 0 mm 2 mps 708 mmHg 54%
    16:00 +28°C° 0 mm 2 mps 708 mmHg 62%
    17:00 +26°C° 0 mm 2 mps 707 mmHg 69%
    18:00 +24°C° 0 mm 2 mps 707 mmHg 76%
    19:00 +23°C° 0.2 mm 2 mps 707 mmHg 79%
    20:00 +21°C° 0.2 mm 2 mps 708 mmHg 81%
    21:00 +20°C° 0.2 mm 3 mps 708 mmHg 84%
    22:00 +20°C° 0.4 mm 2 mps 708 mmHg 87%
    23:00 +19°C° 0.4 mm 2 mps 708 mmHg 89%

    26 September, Tuesday

    Time Temperature Precipitation Wind Pressure Humidity
    00:00 +18°C° 0.4 mm 2 mps 708 mmHg 92%
    01:00 +18°C° 0 mm 2 mps 707 mmHg 92%
    02:00 +17°C° 0 mm 2 mps 707 mmHg 92%
    03:00 +17°C° 0 mm 2 mps 706 mmHg 93%
    04:00 +17°C° 0 mm 2 mps 706 mmHg 93%
    05:00 +17°C° 0 mm 2 mps 706 mmHg 94%
    06:00 +16°C° 0 mm 2 mps 706 mmHg 95%
    07:00 +18°C° 0 mm 2 mps 707 mmHg 90%
    08:00 +20°C° 0 mm 3 mps 707 mmHg 85%
    09:00 +22°C° 0 mm 3 mps 708 mmHg 80%
    10:00 +25°C° 0 mm 2 mps 708 mmHg 72%
    11:00 +27°C° 0 mm 2 mps 707 mmHg 63%
    12:00 +29°C° 0 mm 2 mps 707 mmHg 54%
    13:00 +29°C° 0 mm 2 mps 707 mmHg 52%
    14:00 +29°C° 0 mm 2 mps 706 mmHg 51%
    15:00 +30°C° 0 mm 2 mps 706 mmHg 49%
    16:00 +29°C° 0 mm 1 mps 705 mmHg 55%
    17:00 +27°C° 0 mm 1 mps 705 mmHg 62%
    18:00 +26°C° 0 mm 1 mps 705 mmHg 68%
    19:00 +25°C° 0 mm 1 mps 705 mmHg 72%
    20:00 +23°C° 0 mm 1 mps 706 mmHg 75%
    21:00 +22°C° 0 mm 1 mps 706 mmHg 79%
    22:00 +21°C° 0 mm 1 mps 706 mmHg 82%
    23:00 +21°C° 0 mm 1 mps 706 mmHg 85%

    27 September, Wednesday

    Time Temperature Precipitation Wind Pressure Humidity
    00:00 +19°C° 0 mm 2 mps 706 mmHg 87%
    01:00 +19°C° 0 mm 2 mps 705 mmHg 88%
    02:00 +18°C° 0 mm 2 mps 705 mmHg 89%
    03:00 +18°C° 0 mm 2 mps 705 mmHg 90%
    04:00 +18°C° 0 mm 2 mps 705 mmHg 89%
    05:00 +17°C° 0 mm 2 mps 705 mmHg 89%
    06:00 +17°C° 0 mm 2 mps 705 mmHg 89%
    07:00 +20°C° 0 mm 1 mps 706 mmHg 82%
    08:00 +22°C° 0 mm 1 mps 706 mmHg 76%
    09:00 +24°C° 0 mm 1 mps 707 mmHg 70%
    10:00 +26°C° 0.6 mm 2 mps 707 mmHg 66%
    11:00 +27°C° 0.6 mm 2 mps 707 mmHg 63%
    12:00 +29°C° 0.6 mm 2 mps 707 mmHg 60%
    13:00 +28°C° 0.2 mm 3 mps 706 mmHg 64%
    14:00 +26°C° 0.2 mm 3 mps 706 mmHg 69%
    15:00 +25°C° 0.2 mm 4 mps 705 mmHg 74%
    16:00 +23°C° 0 mm 4 mps 706 mmHg 76%
    17:00 +22°C° 0 mm 4 mps 706 mmHg 79%
    18:00 +21°C° 0 mm 5 mps 706 mmHg 81%
    19:00 +20°C° 0 mm 4 mps 707 mmHg 84%
    20:00 +19°C° 0 mm 3 mps 707 mmHg 87%
    21:00 +18°C° 0 mm 3 mps 707 mmHg 89%
    22:00 +18°C° 0 mm 3 mps 707 mmHg 90%
    23:00 +18°C° 0 mm 3 mps 707 mmHg 91%

    28 September, Thursday

    Time Temperature Precipitation Wind Pressure Humidity
    00:00 +18°C° 0 mm 4 mps 707 mmHg 91%
    01:00 +18°C° 0 mm 4 mps 707 mmHg 92%
    02:00 +18°C° 0 mm 4 mps 706 mmHg 93%
    03:00 +17°C° 0 mm 4 mps 706 mmHg 93%
    04:00 +16°C° 0 mm 5 mps 706 mmHg 93%
    05:00 +16°C° 0 mm 5 mps 707 mmHg 93%
    06:00 +16°C° 0 mm 5 mps 707 mmHg 93%
    07:00 +17°C° 0 mm 5 mps 707 mmHg 88%
    08:00 +20°C° 0 mm 5 mps 708 mmHg 84%
    09:00 +21°C° 0 mm 5 mps 708 mmHg 80%
    10:00 +23°C° 0 mm 5 mps 708 mmHg 75%
    11:00 +25°C° 0 mm 5 mps 708 mmHg 69%
    12:00 +27°C° 0 mm 4 mps 708 mmHg 64%
    13:00 +28°C° 0.4 mm 4 mps 707 mmHg 63%
    14:00 +28°C° 0.4 mm 4 mps 707 mmHg 63%
    15:00 +29°C° 0.4 mm 4 mps 706 mmHg 62%
    16:00 +27°C° 2.6 mm 4 mps 706 mmHg 69%
    17:00 +25°C° 2.6 mm 5 mps 706 mmHg 76%
    18:00 +22°C° 2.6 mm 5 mps 705 mmHg 83%
    19:00 +21°C° 2.2 mm 5 mps 706 mmHg 85%
    20:00 +20°C° 2.2 mm 5 mps 707 mmHg 88%
    21:00 +20°C° 2.2 mm 6 mps 708 mmHg 90%
    22:00 +19°C° 3.2 mm 5 mps 707 mmHg 91%
    23:00 +19°C° 3.2 mm 5 mps 707 mmHg 92%
    Show more